Regional Weather Roundup
Issued by NWS Charleston, SC

Current Version | Previous Version | Text Only | Print | Product List | Glossary Off
Versions: 1 2 3 4 5 6 7 8 9 10 11 12 13 14 15 16 17 18 19 20 21 22 23 24 25 26 27 28 29 30 31 32 33 34 35 36 37 38 39 40 41 42 43 44 45 46 47 48 49 50
000 ASUS42 KCHS 221027 RWRCHS REGIONAL WEATHER ROUNDUP NATIONAL WEATHER SERVICE CHARLESTON SC 600 AM EDT SAT JUL 22 2017 NOTE: "FAIR" INDICATES FEW OR NO CLOUDS BELOW 12,000 FEET WITH NO SIGNIFICANT WEATHER AND/OR OBSTRUCTIONS TO VISIBILITY. NOT ALL STATIONS ARE QUALITY CONTROLLED. USE DATA WITH CAUTION... ESPECIALLY DEWPOINT OBSERVATIONS. SCZ027-030-031-034>040-042>050-221100- ...SOUTHEAST SOUTH CAROLINA... CITY SKY/WX TMP DP RH WIND PRES REMARKS N CHARLESTON CLEAR 76 74 93 CALM 30.00R WATERFRONT PRK N/A 80 77 90 S6 29.98R JOHNS ISLAND FAIR 79 75 89 CALM 30.01R PINOPOLIS N/A 77 75 94 CALM 29.93R MONCKS CORNER FAIR 72 72 100 CALM 30.01R SUMMERVILLE FOG 73 73 100 CALM 30.02S VSB 1/4 BEAUFORT MCAS CLEAR 76 76 100 SW3 30.01S BEAUFORT ARPT FAIR 75 73 94 SW3 30.01R HILTON HEAD IS NOT AVBL WALTERBORO SUNNY 72 72 100 CALM 30.02R ALLENDALE NOT AVBL ...SOUTHERN MIDLANDS AND PEE DEE... CITY SKY/WX TMP DP RH WIND PRES REMARKS GEORGETOWN FAIR 73 72 94 CALM 30.02R KINGSTREE FAIR 72 70 94 SE3 30.00S FOG ORANGEBURG CLEAR 72 71 97 SE3 30.00R BARNWELL FAIR 73 73 100 S3 30.02R AIKEN FAIR 70 70 100 S3 30.04R MANNING FAIR 73 73 100 W12 30.01R COLUMBIA PTCLDY 75 71 87 CALM 29.98S SUMTER CLEAR 74 72 93 S5 29.97S FLORENCE CLEAR 76 76 100 SW7 29.99R MYRTLE BEACH CLEAR 77 75 94 CALM 30.01R N MYRTLE BEACH PTCLDY 78 76 93 SW5 29.99S $$ GAZ063-065-086>088-099>101-113>116-118-119-134>141-150-221100- ...SOUTHEAST GEORGIA... CITY SKY/WX TMP DP RH WIND PRES REMARKS SAVANNAH ARPT PTCLDY 74 71 90 CALM 30.02R HUNTER AAF CLEAR 73 72 96 CALM 30.00R FORT STEWART CLEAR 72 70 92 CALM 30.00R STATESBORO CLEAR 73 73 100 CALM 30.01S SYLVANIA SUNNY 72 72 100 CALM 30.03R CLAXTON FAIR 71 71 98 CALM 30.02R ...CSRA...CENTRAL AND FAR SOUTHEAST GEORGIA... CITY SKY/WX TMP DP RH WIND PRES REMARKS THOMSON CLEAR 71 69 95 CALM 30.06R AUGUSTA-BUSH CLEAR 73 71 93 CALM 29.99S AUGUSTA-DANIEL CLEAR 74 69 85 S5 30.01R SWAINSBORO FOG 72 72 100 S3 30.03R VSB 1/2 VIDALIA CLEAR 72 72 100 CALM 30.02R EASTMAN FAIR 73 73 100 CALM 30.05R HAZLEHURST FAIR 73 73 100 S3 30.01S ALMA MOCLDY 72 70 93 SW3 30.02R FOG WAYCROSS CLEAR 74 74 100 CALM 30.03R JESUP NOT AVBL BAXLEY FAIR 72 72 100 CALM 30.02R FOG BRUNSWICK CLEAR 72 72 100 CALM 30.03S FOG SAINT SIMONS CLEAR 75 73 93 W3 30.02R $$ SCZ027-028-034-036>038-045-046-048>050-GAZ119-141-221100- ...LAKE AND SUPPLEMENTAL COASTAL OBSERVATIONS... STATION/POSITION TIME TEMP WIND PRES WAVE SWELL AIR SEA DIR/SP/G HT/PER HT/PER/DIR (UTC) (F) (DEG/KT/KT) (MB) (FT/S) (FT/S/D) WINYAH BAY 0945 77 250/ 2 1016.0S LAKE MURRAY 0920 80 220/ 4/ 6 1014.2 ACE BASIN NERRS 0945 78 CALM 1016.0S FORT PULASKI 1000 78 86 310/ 3/ 4 1016.7 SAPELO ISLAND 1000 76 260/ 3 1016.0 $$ ANZ835-935-AMZ111-154-330-350-352-354-370-450-454-472-221100- ...C-MAN AND BUOY OBSERVATIONS... STATION/POSITION TIME TEMP WIND PRES WAVE SWELL AIR SEA DIR/SP/G HT/PER HT/PER/DIR (UTC) (F) (DEG/KT/KT) (MB) (FT/S) (FT/S/D) BUOY 41004 1010 82 83 230/ 10/ 14 1015.8 BUOY 41008 0950 81 82 270/ 8/ 10 1015.6R 2/10 2/ 90/10 FOLLY BEACH CMAN 1000 82 210/ 12/ 14 1016.5S CAPERS NEARSHORE 1008 79 83 220/ 10/ 16 1015.7R FRIPP NEARSHORE 1008 81 84 280/ 10/ 12 1015.7R STATION/POSITION TIME TEMP WIND PRES WAVE SWELL AIR SEA DIR/SP/G HT/PER HT/PER/DIR (UTC) (F) (DEG/KT/KT) (MB) (FT/S) (FT/S/D) 5E ST. MARYS GA 1000 82 N/A 2/ 9 FRYING PAN BUOY 1010 83 83 230/ 14/ 16 1015.9 BUOY 41025 0950 82 84 240/ 19/ 23 1014.8R 5/ 5 2/170/ 9 CAPE LOOKOUT NC 1000 80 240/ 10/ 13 1015.2R BUOY 41002 0950 82 83 210/ 12/ 14 1017.7R 4/ 8 3/100/ 8 BUOY 41010 1010 83 85 220/ 12/ 16 1017.3 ST AUGUSTINE FL 1000 75 81 230/ 6/ 7 1017.0R $$

USA.gov is the U.S. government's official web portal to all federal, state and local government web resources and services.